STARLINK-2235, 48581

Orbit data source: Space-Track

STARLINK-2235, 48581 is a payload satellite owned by SpaceX/Seattle (US) in LEO that was launched on Sat, 15 May 2021 UTC via an FALCON 9 launch vehicle from the Air Force Eastern Test Range (AFETR). Payload-class satellites include a variety of spacecraft equipped with specific instruments for various scientific and technological missions. These include communications satellites like Starlink; space stations such as the ISS; scientific satellites like the Hubble; Earth observation satellites from companies like Planet Labs, Umbra, and HawkEye 360; GPS; miniature CubeSats for education and research; and military/defense satellites.

Loading next visibility...
Identifier
48581, 2021-041AE
Orbit
LEO
Country
Flag of USUS
Related business
Manufacturer
SpaceX/Seattle
Mission
Operational Commercial Communications
Bus & Motor
STARLINK, Unknown motor
Mass
260 kg wet, ~248 kg dry
Launch date (UTC)
2021-05-15 (5 years ago)
Launch vehicle
FALCON 9
Launch site
Air Force Eastern Test Range (AFETR)
Object type
Payload
Rocket body
Debris
Shape & HBR
Box + 1 Pan, 10.1 m
Radar Cross Section
13.562 m², Large (>1 m²)

Expand to show TLE details & history
Last TLE update: 1 day ago

TLE from 1 day ago
0 STARLINK-2235
1 48581U 21041AE  25349.64802972  .00000646  00000-0  62224-4 0  9991
2 48581  53.0550 113.9052 0001172  91.7458 268.3665 15.06400134253035
Epoch: 2025-12-15T15:33Z
TLE epoch observation values (Epoch: 2025-12-15T15:33:09.767Z)
Latitude
-0.00006°
Longitude
156.07088°
Altitude
548.114 km
Speed
7.589 km/s
True Right ascension
07h 35m 37s
True Declination
0° 00' 00"
Sunlit
Object was in full shadow at epoch
Visualization orbit readout
Latitude
Unknown
Longitude
Unknown
Altitude
Unknown
Speed
Unknown
Apparent Right ascension
Unknown
Apparent Declination
Unknown
Sunlit
N/A
Visualization observer readout
Local Sidereal Time
17:49:25
Azimuth
Unknown
Elevation
Unknown
Doppler factor
Unknown
Orbital elements
Apogee altitude
548.293 km
Perigee altitude
546.67 km
Semi-major axis
6,925.619 km
Eccentricity
0.00012
Inclination
53.055°
RAAN
113.9052°
Arg. of periapsis
91.7458°
True anomaly
268.35308°
Mean anomaly
268.3665°
Eccentric anomaly
268.35979°
Mean motion
3.76578 °/min
Orbital period
95.6 mins
BSTAR
0.000062224
Loading maneuver chart data...
Computing Atmospheric mass density...

Documentation

Showing up to 5 results
|